Rockford, IL

6:45 AM CDT on April 23, 2017 (GMT -0500)
Greater Rockford

Weather History for KRFD - September, 2014

Change the Weather History Date:

Thursday, September 4, 2014

  Actual Average Record
Temperature  
Mean Temperature 77 °F 68 °F  
Max Temperature 84 °F 80 °F 101 °F (1925)
Min Temperature 69 °F 58 °F 39 °F (1974)
Degree Days  
Heating Degree Days 0 1  
Month to date heating degree days 0 4  
Since 1 July heating degree days 10 18  
Cooling Degree Days 12 5  
Month to date cooling degree days 34 20  
Year to date cooling degree days 690 747  
Growing Degree Days 26 (Base 50)    
Moisture  
Dew Point 68 °F    
Average Humidity 76    
Maximum Humidity 94    
Minimum Humidity 58    
Precipitation  
Precipitation 0.80 in 0.12 in 2.38 in (2008)
Month to date precipitation 0.83 0.48  
Year to date precipitation 27.08 26.14  
Snow  
Snow 0.00 in 0.00 in 0.00 in ()
Month to date snowfall 0.0 0.0  
Since 1 July snowfall T 0.0  
Since 1 September snowfall 0.0 0.0  
Snow Depth 0.00 in    
Sea Level Pressure  
Sea Level Pressure 29.94 in    
Wind  
Wind Speed 13 mph (South)    
Max Wind Speed 31 mph    
Max Gust Speed 40 mph    
Visibility 9 miles    
Events Rain , Thunderstorm    
T = Trace of Precipitation, MM = Missing Value Source: NWS Daily Summary

Daily Weather History Graph

Daily Weather History Graph

Search for Another Location

Airport or City:

Trip Planner

Search our weather history database for the weather conditions in past years. The results will help you decide how hot, cold, wet, or windy it might be!

Date:

Astronomy

Sep. 04, 2014 Rise Set
Actual Time 6:24 AM CDT 7:25 PM CDT
Civil Twilight 5:56 AM CDT 7:53 PM CDT
Nautical Twilight 5:22 AM CDT 8:27 PM CDT
Astronomical Twilight 4:46 AM CDT 9:03 PM CDT
Moon 4:05 PM CDT (9/4) 1:12 AM CDT (9/4)
Length of Visible Light 13h 57m
Length of Day
13h 00m
Waxing Gibbous, 74% of the Moon is Illuminated
Sep 4
Waxing Gibbous
Sep 8
Full
Sep 15
Last Quarter
Sep 24
New
Oct 1
First Quarter

Hourly Weather History & Observations

Time (CDT) Temp. Heat Index Dew Point Humidity Pressure Visibility Wind Dir Wind Speed Gust Speed Precip Events Conditions
12:54 AM 73.0 °F - 64.9 °F 76% 29.92 in 10.0 mi South 15.0 mph - N/A   Mostly Cloudy
1:54 AM 73.0 °F - 64.9 °F 76% 29.92 in 10.0 mi South 13.8 mph - N/A   Mostly Cloudy
2:41 AM 73.0 °F - 66.0 °F 79% 29.92 in 10.0 mi South 12.7 mph - N/A Thunderstorm Thunderstorm
2:54 AM 73.0 °F - 66.0 °F 79% 29.90 in 10.0 mi South 11.5 mph - N/A Thunderstorm Thunderstorm
3:54 AM 73.0 °F - 66.0 °F 79% 29.88 in 10.0 mi South 15.0 mph - N/A Thunderstorm Thunderstorm
4:13 AM 73.0 °F - 66.0 °F 79% 29.88 in 10.0 mi South 16.1 mph - N/A   Mostly Cloudy
4:54 AM 73.0 °F - 66.0 °F 79% 29.86 in 10.0 mi South 12.7 mph - N/A   Mostly Cloudy
5:54 AM 73.0 °F - 66.9 °F 81% 29.96 in 10.0 mi NNW 10.4 mph - N/A   Overcast
6:13 AM 73.0 °F - 66.9 °F 81% 29.98 in 10.0 mi NNE 13.8 mph - N/A   Overcast
6:23 AM 73.0 °F - 66.9 °F 81% 29.97 in 10.0 mi NNE 11.5 mph - 0.00 in Rain , Thunderstorm Light Thunderstorms and Rain
6:54 AM 72.0 °F - 68.0 °F 87% 29.95 in 10.0 mi East 4.6 mph - 0.02 in Rain , Thunderstorm Light Thunderstorms and Rain
7:30 AM 71.6 °F - 68.0 °F 88% 30.00 in 8.0 mi Calm Calm - N/A Rain Light Rain
7:38 AM 71.1 °F - 66.9 °F 87% 30.00 in 9.0 mi NE 3.5 mph - 0.04 in Rain , Thunderstorm Light Thunderstorms and Rain
7:54 AM 70.0 °F - 66.9 °F 90% 29.99 in 9.0 mi Variable 5.8 mph - 0.06 in Rain , Thunderstorm Light Thunderstorms and Rain
8:26 AM 69.1 °F - 66.0 °F 90% 29.98 in 10.0 mi East 13.8 mph 23.0 mph 0.02 in Rain , Thunderstorm Light Thunderstorms and Rain
8:54 AM 69.1 °F - 66.0 °F 90% 29.98 in 4.0 mi East 11.5 mph - 0.03 in Rain , Thunderstorm Light Thunderstorms and Rain
9:38 AM 69.1 °F - 66.0 °F 90% 30.01 in 1.5 mi ESE 8.1 mph - 0.11 in Rain , Thunderstorm Heavy Thunderstorms and Rain
9:42 AM 69.1 °F - 66.0 °F 90% 30.02 in 1.0 mi South 10.4 mph - 0.24 in Rain , Thunderstorm Heavy Thunderstorms and Rain
9:54 AM 69.1 °F - 66.9 °F 93% 29.97 in 1.0 mi SSE 18.4 mph - 0.56 in Rain , Thunderstorm Heavy Thunderstorms and Rain
9:59 AM 69.1 °F - 66.9 °F 93% 29.99 in 3.0 mi SSE 17.3 mph 25.3 mph 0.03 in Rain , Thunderstorm Heavy Thunderstorms and Rain
10:33 AM 69.1 °F - 66.0 °F 90% 29.99 in 10.0 mi South 19.6 mph - 0.13 in Rain Light Rain
10:54 AM 69.1 °F - 64.9 °F 87% 29.96 in 10.0 mi SSE 18.4 mph - 0.13 in   Overcast
11:54 AM 72.0 °F - 64.9 °F 78% 29.93 in 10.0 mi South 16.1 mph - N/A   Overcast
12:14 PM 73.0 °F - 64.9 °F 76% 29.97 in 10.0 mi SSW 12.7 mph - N/A Thunderstorm Thunderstorm
12:47 PM 71.6 °F - 66.2 °F 83% 29.96 in 10.0 mi SSW 6.9 mph - N/A Rain Light Rain
12:54 PM 70.0 °F - 66.0 °F 87% 29.93 in 10.0 mi SSE 10.4 mph - 0.00 in Rain Light Rain
1:05 PM 71.1 °F - 66.0 °F 84% 29.96 in 10.0 mi SSW 8.1 mph - 0.00 in Rain Light Rain
1:14 PM 71.1 °F - 66.9 °F 87% 29.95 in 10.0 mi SSW 12.7 mph 26.5 mph 0.00 in   Overcast
1:54 PM 75.0 °F - 66.9 °F 76% 29.90 in 10.0 mi South 21.9 mph 27.6 mph 0.00 in   Overcast
2:54 PM 80.1 °F 82.7 °F 68.0 °F 67% 29.86 in 10.0 mi SSW 20.7 mph 34.5 mph N/A   Mostly Cloudy
3:54 PM 82.9 °F 85.4 °F 66.9 °F 58% 29.87 in 10.0 mi SSW 17.3 mph 31.1 mph N/A   Mostly Cloudy
4:54 PM 82.9 °F 85.8 °F 68.0 °F 60% 29.87 in 10.0 mi South 19.6 mph 27.6 mph N/A   Scattered Clouds
5:54 PM 82.9 °F 87.5 °F 71.1 °F 67% 29.86 in 10.0 mi SSW 13.8 mph - N/A   Partly Cloudy
6:54 PM 82.0 °F 87.4 °F 73.0 °F 74% 29.87 in 10.0 mi SSW 10.4 mph - N/A   Partly Cloudy
7:54 PM 79.0 °F - 73.0 °F 82% 29.89 in 10.0 mi SSE 8.1 mph - N/A   Partly Cloudy
8:54 PM 78.8 °F - 73.4 °F 83% 29.93 in 10.0 mi SSE 8.1 mph - N/A   Clear
9:54 PM 77.0 °F - 73.0 °F 88% 29.95 in 9.0 mi SE 5.8 mph - N/A   Clear
10:54 PM 77.0 °F - 73.0 °F 88% 29.95 in 9.0 mi SSE 9.2 mph - N/A   Clear
11:54 PM 75.9 °F - 73.0 °F 91% 29.94 in 9.0 mi South 10.4 mph - N/A   Partly Cloudy